Regional Weather Roundup
Issued by NWS Cleveland, OH

Home | Current Version | Previous Version | Graphics & Text | Print | Product List | Glossary On
Versions: 1 2 3 4 5 6 7 8 9 10 11 12 13 14 15 16 17 18 19 20 21 22 23 24 25 26 27 28 29 30 31 32 33 34 35 36 37 38 39 40 41 42 43 44 45 46 47 48 49 50
000
ASUS41 KCLE 161310
RWRCLE
OHIO REGIONAL WEATHER ROUNDUP
NATIONAL WEATHER SERVICE CLEVELAND, OH
900 AM EDT WED AUG 16 2017

NOTE: "FAIR" INDICATES FEW OR NO CLOUDS BELOW 12,000 FEET WITH NO
SIGNIFICANT WEATHER AND/OR OBSTRUCTIONS TO VISIBILITY.

OHZ001>008-015>018-024>027-034-035-043-044-161400-
   NORTHWEST OHIO

CITY           SKY/WX    TMP DP  RH WIND       PRES   REMARKS
DEFIANCE       MOSUNNY   69  64  84 E10       30.06R
FINDLAY        MOSUNNY   72  63  73 E8        30.06R
TOLEDO EXPRESS SUNNY     71  68  90 E6        30.07R
TOLEDO EXEC    SUNNY     72  68  87 E7        30.08R
LIMA           SUNNY     72  68  87 E5        30.05S
$$

OHZ009>014-019>023-028>033-038-089-161400-
   NORTHEAST OHIO

CITY           SKY/WX    TMP DP  RH WIND       PRES   REMARKS
CLE-HOPKINS    MOSUNNY   72  63  73 E6        30.10S
CLE-LAKEFRONT  MOSUNNY   72  61  68 E7        30.08R
CUY CO. ARPT   MOSUNNY   72  64  78 SE6       30.10R
LORAIN-ELYRIA  SUNNY     68  61  78 S3        30.09S
ASHTABULA      SUNNY     68  64  87 CALM      30.10S
AKRON-CANTON   MOSUNNY   72  62  71 E5        30.10R
WOOSTER        SUNNY     70  64  81 E6        30.10R
MANSFIELD      SUNNY     70  62  76 E10       30.09S
YOUNGSTOWN     MOSUNNY   68  62  81 NE6       30.10R
$$

OHZ042-051>053-060>062-070>072-077>081-161400-
  SOUTHWEST OHIO

CITY           SKY/WX    TMP DP  RH WIND       PRES   REMARKS
CINC-COVINGTON MOSUNNY   76  71  85 CALM      30.04S
CINC-LUNKEN    MOSUNNY   72  71  97 CALM      30.04S
HAMILTON       SUNNY     74  71  91 CALM      30.05R
DAYTON         MOSUNNY   75  69  81 S5        30.06R
WRIGHT-PAT AFB SUNNY     75  71  87 CALM      30.05R
DAYTON GENERAL SUNNY     76  69  79 CALM      30.05R
WILMINGTON     SUNNY     75  72  90 CALM      30.05S
$$

OHZ036-037-039>041-045>050-054>059-063>069-073>076-082>088-161400-
  CENTRAL AND SOUTHEAST OHIO

CITY           SKY/WX    TMP DP  RH WIND       PRES   REMARKS
COLUMBUS       MOSUNNY   74  71  91 CALM      30.05R
OSU AIRPORT    MOSUNNY   74  70  87 E5        30.05S
BOLTON FIELD   SUNNY     73  70  88 SE6       30.06R
RICKENBACK AFB SUNNY     72  69  91 CALM      30.05R
NEWARK         CLOUDY    73  67  81 E5        30.07R
MARION         SUNNY     72  66  81 SE6       30.07S
LANCASTER      MOSUNNY   72  69  90 CALM      30.07R
ZANESVILLE     CLOUDY    70  66  87 CALM      30.07R
NEW PHILLY     NOT AVBL
$$




USA.gov is the U.S. government's official web portal to all federal, state and local government web resources and services.